Weather History for KISN - November, 2013

Change the Weather History Date:

Thursday, November 21, 2013

  Actual Average Record
Temperature  
Mean Temperature -1 °F 24 °F  
Max Temperature 12 °F 34 °F 58 °F (1987)
Min Temperature -14 °F 14 °F -22 °F (1978)
Degree Days  
Heating Degree Days 66 41  
Month to date heating degree days 755 742  
Since 1 July heating degree days 1664 1769  
Cooling Degree Days 0 0  
Month to date cooling degree days 0 0  
Year to date cooling degree days 405 456  
Moisture  
Dew Point -5 °F    
Average Humidity 76    
Maximum Humidity 90    
Minimum Humidity 61    
Precipitation  
Precipitation 0.00 in 0.02 in 0.40 in (1895)
Month to date precipitation 0.34 0.49  
Year to date precipitation 20.20 13.59  
Sea Level Pressure  
Sea Level Pressure 30.66 in    
Wind  
Wind Speed 8 mph (SSW)    
Max Wind Speed 17 mph    
Max Gust Speed 21 mph    
Visibility 10 miles    
Events      
T = Trace of Precipitation, MM = Missing Value Source: NWS Daily Summary

Daily Weather History Graph

Daily Weather History Graph

Search for Another Location

Airport or City:

Trip Planner

Search our weather history database for the weather conditions in past years. The results will help you decide how hot, cold, wet, or windy it might be!

Date:

Astronomy

Nov. 21, 2013 Rise Set
Actual Time 8:10 AM CST 5:09 PM CST
Civil Twilight 7:36 AM CST 5:44 PM CST
Nautical Twilight 6:57 AM CST 6:22 PM CST
Astronomical Twilight 6:20 AM CST 6:59 PM CST
Moon 8:51 PM CST (11/21) 11:16 AM CST (11/21)
Length of Visible Light 10h 08m
Length of Day
8h 58m
Waning Gibbous, 85% of the Moon is Illuminated
Nov 21
Waning Gibbous
Nov 25
Last Quarter
Dec 2
New
Dec 9
First Quarter
Dec 17
Full

Hourly Weather History & Observations

Time (CST) Temp. Windchill Dew Point Humidity Pressure Visibility Wind Dir Wind Speed Gust Speed Precip Events Conditions
12:52 AM -4.0 °F -16.3 °F -9.0 °F 79% 30.64 in 10.0 mi West 5.8 mph - N/A   Clear
1:52 AM -6.0 °F - -11.0 °F 79% 30.66 in 10.0 mi Calm Calm - N/A   Clear
2:52 AM -7.1 °F - -11.9 °F 79% 30.67 in 10.0 mi Calm Calm - N/A   Clear
3:52 AM -9.9 °F -21.5 °F -14.1 °F 82% 30.68 in 10.0 mi SSW 4.6 mph - N/A   Clear
4:52 AM -9.9 °F -19.2 °F -15.0 °F 78% 30.69 in 10.0 mi SSW 3.5 mph - N/A   Clear
5:52 AM -8.0 °F - -14.1 °F 75% 30.70 in 10.0 mi Calm Calm - N/A   Clear
6:52 AM -13.0 °F -22.7 °F -18.0 °F 78% 30.72 in 10.0 mi South 3.5 mph - N/A   Clear
7:52 AM -11.0 °F -20.4 °F -15.0 °F 83% 30.74 in 10.0 mi SSW 3.5 mph - N/A   Clear
8:52 AM -9.0 °F -23.8 °F -13.0 °F 83% 30.74 in 10.0 mi SW 6.9 mph - N/A   Clear
9:01 AM -9.4 °F -24.3 °F -13.0 °F 84% 30.57 in 2.5 mi SSW 6.9 mph - N/A   Partly Cloudy
9:14 AM -9.4 °F -25.6 °F -11.2 °F 92% 30.57 in 8.0 mi SSW 8.1 mph - N/A   Partly Cloudy
9:52 AM -7.1 °F -19.9 °F -9.9 °F 87% 30.76 in 9.0 mi SSW 5.8 mph - N/A   Clear
10:52 AM -2.0 °F -18.7 °F -7.1 °F 79% 30.77 in 10.0 mi SW 10.4 mph - N/A   Clear
11:52 AM 1.9 °F -13.8 °F -2.9 °F 80% 30.75 in 10.0 mi SSW 10.4 mph - N/A   Clear
12:52 PM 6.1 °F -10.2 °F -0.9 °F 73% 30.71 in 10.0 mi SSW 12.7 mph - N/A   Clear
1:52 PM 10.0 °F -5.2 °F 1.0 °F 67% 30.67 in 10.0 mi SSW 12.7 mph - N/A   Clear
2:52 PM 12.0 °F -2.0 °F 1.9 °F 64% 30.65 in 10.0 mi SSW 11.5 mph - N/A   Clear
3:52 PM 12.0 °F -1.3 °F 1.9 °F 64% 30.66 in 10.0 mi SSW 10.4 mph - N/A   Clear
4:52 PM 10.9 °F -4.7 °F 1.9 °F 67% 30.65 in 10.0 mi SSW 13.8 mph - N/A   Clear
5:52 PM 9.0 °F -3.2 °F 1.0 °F 70% 30.64 in 10.0 mi SSW 8.1 mph - N/A   Clear
6:52 PM 8.1 °F -4.3 °F 1.0 °F 73% 30.64 in 10.0 mi SSW 8.1 mph - N/A   Clear
7:52 PM 8.1 °F -7.7 °F 1.9 °F 76% 30.62 in 10.0 mi SW 12.7 mph - N/A   Clear
8:52 PM 9.0 °F -3.2 °F 1.9 °F 73% 30.60 in 10.0 mi SSW 8.1 mph - N/A   Clear
9:52 PM 10.0 °F -4.5 °F 3.0 °F 73% 30.57 in 10.0 mi SSW 11.5 mph - N/A   Clear
10:52 PM 10.9 °F -4.1 °F 3.0 °F 70% 30.55 in 10.0 mi SW 12.7 mph - N/A   Clear
11:52 PM 10.9 °F -4.1 °F 3.9 °F 73% 30.53 in 10.0 mi SW 12.7 mph - N/A   Clear